Dewpoint
51 51 51 51 50 50 50 50 50 50 49 49 49 48 48 47 48 42 38 39 43 48 44 42 35 37 42 42 46 48 38 33 34 38 37 40 40 42 41 34 42 53 55 61 67
51 51 51 50 50 50 50 50 50 49 49 49 48 48 47 47 41 38 42 50 47 48 37 32 35 34 37 40 42 42 37 33 34 40 39 42 45 48 45 40 46 54 60 65 67
51 50 50 50 50 50 50 50 49 49 49 49 48 47 47 44 36 34 44 46 44 42 42 42 36 35 35 38 39 39 35 35 38 41 43 45 46 48 48 41 45 45 51 63 64
50 50 50 50 50 50 50 49 49 49 49 48 47 47 47 42 24 33 45 45 44 36 35 35 36 37 37 35 37 35 39 39 41 42 43 43 47 46 49 47 49 49 54 61 63
50 50 50 50 50 49 49 49 49 49 48 48 48 45 43 36 36 39 45 40 35 34 34 35 36 34 37 34 35 36 36 40 42 42 43 46 45 47 48 51 50 50 54 59 61
50 50 49 49 49 49 49 49 49 48 47 47 46 44 40 29 35 37 33 31 34 34 34 36 37 39 36 34 35 35 36 36 37 40 43 42 43 45 47 52 50 50 51 54 59
49 49 49 49 49 49 49 50 49 46 45 45 43 39 37 32 36 36 32 29 30 34 33 38 38 36 37 33 34 34 36 35 35 37 41 43 39 42 46 50 49 49 50 51 56
49 49 48 48 49 49 49 49 47 45 43 42 43 39 34 35 36 35 27 26 32 38 35 40 39 37 36 36 33 34 35 33 31 35 40 39 34 41 47 48 46 49 49 50 53
49 48 48 47 48 49 48 47 43 43 42 41 39 34 26 31 21 24 28 26 34 40 40 37 38 35 34 33 26 33 29 28 29 32 40 38 35 39 45 47 46 48 49 49 52
47 47 47 47 48 46 43 44 40 37 35 34 31 23 17 16 24 24 28 28 27 38 36 36 33 29 28 33 18 24 26 28 27 29 35 37 35 42 45 46 46 48 49 48 51
47 46 47 47 48 42 37 34 31 19 32 28 26 29 25 26 27 25 25 27 29 28 25 33 28 22 24 26 32 29 28 28 29 31 31 33 36 39 43 44 46 47 48 48 50
47 46 46 47 48 40 35 33 34 33 28 31 31 31 31 29 24 23 31 28 27 25 28 27 22 26 29 29 29 28 26 25 26 29 31 31 34 37 43 43 45 46 48 49 49
46 46 47 47 45 40 33 32 37 37 27 24 28 28 20 21 21 24 32 32 27 26 25 22 23 26 27 30 27 27 26 25 24 27 32 31 28 36 40 43 46 47 48 48 49
45 46 47 47 31 38 31 35 38 35 11 9 16 17 20 22 22 30 35 32 29 26 28 24 25 25 24 25 30 25 29 29 26 25 24 32 21 28 39 40 43 44 45 47 50
45 46 47 44 35 34 32 35 37 24 -9 9 17 20 20 14 20 16 33 33 29 29 27 18 24 25 23 22 28 24 34 31 29 28 29 26 24 26 36 37 42 44 46 47 50
45 46 46 39 34 37 35 36 25 9 -13 15 17 16 19 17 17 19 29 26 32 23 21 26 28 27 25 25 25 32 33 32 30 28 19 22 24 23 33 34 39 44 47 48 49
45 46 42 41 27 32 36 26 11 0 14 7 14 18 19 15 13 15 19 24 18 6 7 17 17 27 28 23 27 32 28 13 17 19 11 31 23 25 30 33 38 43 46 47 49
45 42 38 38 33 35 25 18 -0 13 13 15 17 18 15 14 12 13 22 20 22 12 4 10 8 23 25 25 20 30 27 12 0 10 19 28 17 25 27 30 36 41 45 46 48
41 34 28 31 35 31 22 7 7 14 14 14 17 16 15 16 12 11 13 19 23 15 4 3 12 19 30 28 24 20 24 30 10 17 17 22 24 25 20 22 30 40 44 46 47
35 30 25 32 33 25 19 12 16 17 15 16 16 16 14 14 10 9 9 22 15 19 20 11 12 19 26 28 27 22 26 23 18 11 6 18 17 17 20 23 23 37 43 45 47
30 26 26 31 27 21 10 11 16 16 17 16 13 15 13 11 12 11 7 17 19 17 19 21 17 17 24 27 23 20 16 26 23 22 12 16 16 25 26 28 27 28 36 46 48
27 19 28 24 18 7 12 19 22 16 17 16 16 15 12 12 11 8 13 15 19 17 11 18 21 16 21 24 27 28 25 27 21 15 18 18 16 27 27 27 28 29 34 44 49
27 25 27 23 8 7 19 18 19 16 17 16 15 17 15 12 4 10 13 16 19 17 19 22 9 7 16 27 26 23 27 28 30 28 19 12 17 27 27 27 28 29 39 45 49
23 14 23 23 17 17 15 16 17 19 17 16 16 16 15 12 13 11 12 15 16 18 25 22 19 15 12 16 20 12 18 25 27 20 25 22 25 26 27 26 27 29 34 48 50
24 18 22 10 16 16 13 19 16 15 17 16 14 15 15 2 8 9 14 14 17 20 19 20 14 16 18 20 23 22 15 22 23 23 23 26 26 27 28 26 27 29 31 34 44
21 20 21 19 21 12 10 9 16 16 16 13 16 16 16 9 12 10 14 16 16 17 17 21 15 20 15 25 24 19 18 23 26 25 29 28 25 31 30 26 25 26 27 30 34
29 29 24 20 13 8 9 11 16 18 16 16 16 17 16 16 17 19 19 19 20 19 15 13 17 13 9 18 24 14 17 20 22 22 24 23 24 29 27 24 23 22 25 28 30
Lifted_Index
14 14 14 14 14 14 14 14 14 14 15 15 15 15 16 16 16 16 14 11 7 5 5 4 4 3 2 1 1 -0 -0 0 0 0 0 0 -0 -0 -0 -0 -1 -2 -3 -5 -6
15 15 15 14 14 14 14 14 14 14 15 15 15 16 16 16 16 15 12 9 6 4 4 4 3 3 2 1 1 0 0 0 0 0 -0 -0 -0 -1 -1 -1 -1 -2 -3 -5 -6
15 15 15 15 14 14 14 14 14 15 15 15 15 16 16 16 16 14 11 7 4 4 4 3 3 2 2 1 1 0 0 0 0 -0 -0 -0 -0 -0 -1 -1 -1 -1 -2 -4 -6
15 15 15 15 14 14 14 14 14 15 15 15 15 15 16 16 15 13 9 6 4 4 4 4 3 2 2 1 1 1 0 0 -0 -0 -0 0 0 0 -0 -0 -0 -0 -2 -4 -5
16 15 15 15 14 14 14 14 14 15 15 15 15 15 16 16 14 11 8 6 5 5 5 4 3 2 1 1 1 1 1 0 -0 -0 -0 0 1 1 0 -0 -0 -0 -2 -3 -4
16 16 15 14 14 14 14 14 15 15 15 15 15 16 16 15 13 9 7 6 6 5 5 5 4 3 2 1 1 1 1 1 0 -0 0 1 1 1 1 0 -0 -1 -1 -2 -3
16 16 15 15 14 14 14 14 15 15 15 15 15 16 15 13 10 7 6 5 5 5 5 5 4 4 3 2 2 1 1 1 1 0 0 1 2 2 2 1 0 -0 -1 -2 -2
16 16 15 15 14 14 14 15 15 16 16 15 16 16 14 12 8 6 5 5 4 4 4 4 4 4 4 3 2 1 1 1 1 1 1 1 2 3 2 2 1 1 -0 -1 -1
16 16 15 15 15 15 15 16 16 17 16 16 16 16 14 10 7 6 5 4 3 3 3 3 4 4 4 3 3 2 1 1 1 1 1 2 2 3 2 2 2 2 1 -0 -0
16 16 15 15 15 16 17 18 18 18 17 17 17 15 12 9 7 5 5 4 3 2 2 3 4 4 4 4 3 3 2 1 1 1 1 2 2 2 2 2 2 2 1 1 0
16 16 16 15 15 17 18 19 19 18 18 17 16 14 11 8 6 5 4 3 2 2 2 2 3 4 4 4 3 3 3 2 2 2 2 2 2 2 2 2 2 2 2 1 1
16 16 15 15 16 17 19 19 19 18 18 17 15 13 9 7 5 5 3 2 2 2 2 2 2 3 4 4 4 4 3 3 2 2 2 2 2 2 2 2 2 2 2 2 1
16 16 15 16 16 18 18 18 18 18 17 16 15 12 9 7 5 5 4 2 2 2 2 2 2 2 3 4 4 4 4 3 3 2 2 2 2 2 2 2 2 2 3 3 2
16 16 15 16 17 18 18 18 18 16 15 15 14 12 9 7 6 5 4 3 2 2 2 1 1 2 3 3 4 4 3 3 2 2 2 2 2 2 2 2 2 3 3 3 3
16 16 15 17 18 18 18 17 17 14 11 13 14 11 9 8 7 6 4 3 3 2 2 2 1 1 2 3 4 3 3 2 2 2 2 2 2 2 3 3 3 3 3 3 3
16 16 16 17 18 18 18 16 15 11 10 12 13 11 9 8 7 6 5 4 3 2 2 2 1 1 2 3 3 3 2 2 2 2 2 2 2 2 3 3 2 2 2 3 3
16 16 17 17 18 18 17 15 12 11 12 12 11 10 9 8 8 7 6 5 3 2 2 1 1 1 2 2 3 2 2 1 1 1 1 2 2 2 2 2 2 2 2 3 3
17 17 17 18 18 17 16 13 10 12 14 13 11 9 8 8 9 8 7 6 4 3 2 1 1 1 2 2 2 2 1 1 1 1 1 2 2 2 2 2 1 1 2 2 2
17 17 18 19 18 18 15 12 12 14 15 13 11 8 7 8 9 8 8 7 6 5 3 2 1 2 2 2 2 2 1 1 1 1 1 1 1 1 1 1 1 1 2 2 2
17 17 18 19 19 17 14 12 14 17 17 14 10 7 7 8 9 9 8 8 7 7 5 3 2 2 2 2 2 2 2 1 1 1 1 1 1 1 1 1 1 1 1 2 2
16 16 17 18 18 16 13 14 16 18 17 14 11 9 8 8 9 9 9 8 8 7 6 4 2 1 1 2 2 2 2 1 1 1 0 1 1 2 2 2 1 1 1 1 1
14 15 17 17 16 14 14 15 17 18 17 15 12 10 10 9 9 9 9 9 9 7 6 4 3 1 1 1 2 2 2 1 1 1 1 1 2 2 3 2 1 1 1 1 1
14 14 16 17 15 14 14 15 17 17 16 15 13 12 11 10 9 9 10 10 9 7 6 4 3 1 1 1 1 2 2 2 2 1 1 1 2 2 3 2 1 1 0 0 -0
14 14 15 16 15 14 14 15 15 16 16 15 13 12 10 10 10 10 9 9 8 6 5 4 3 2 1 1 1 2 2 3 2 2 1 1 2 2 2 1 1 0 0 -0 -0
14 14 14 14 14 15 14 14 14 14 15 14 12 11 10 9 9 9 9 8 6 5 4 4 3 2 1 1 1 2 2 3 3 2 2 1 1 2 2 1 0 -0 -0 -1 -1
15 15 15 14 14 14 14 14 14 14 14 12 11 10 10 9 9 8 7 6 4 3 3 3 2 2 2 2 1 1 2 3 3 2 2 2 2 2 2 1 1 -0 -0 -1 -1
16 16 16 15 14 14 14 14 14 15 14 13 11 10 10 10 9 8 6 5 3 2 2 2 2 2 2 2 1 1 2 2 3 3 2 2 2 2 2 1 1 0 -0 -0 -0